Location: Newark
(54.2500°N, 9.1833°E)
Time: 02:10:20
(UTC+00:00)

Transit 4A - Pass Details

Date: 25 December 2019
Orbit: 871 x 973 km, 66.8° (Epoch: 23 January)

Event Time Altitude Azimuth Distance (km) Brightness Sun altitude
Rises 17:15:32 0° 291° (WNW) 3,539 11.8 -17.7°
Reaches altitude 10° 17:18:35 10° 305° (NW) 2,581 10.8 -18.1°
Maximum altitude 17:23:22 24° 358° (N) 1,750 9.2 -18.8°
Enters shadow 17:25:30 20° 29° (NNE) 1,934 9.2 -19.1°
